INSAT-3D

Last updated on Tue Oct 08 2024 00:02:17 GMT+0000 (Coordinated Universal Time)

1 39216U 13038B 24281.55388228 -.00000328 00000+0 00000+0 0 9996 2 39216 0.3197 91.5227 0001170 104.1062 150.0186 1.00273045 40885
UTC large
Height (km)
Speed (km/s)
/
Latitude / Longitude
Inclination (degrees)
Orbital Period (minutes)
Azimuth
Elevation
Range (km)
Doppler Factor

Next 0 passes for location: London (51.5072 / 0.1276)

Sorry there are no passes over London.